Time,TemperatureF,DewpointF,PressureIn,WindDirection,WindDirectionDegrees,WindSpeedMPH,WindSpeedGustMPH,Humidity,HourlyPrecipIn,Conditions,Clouds,dailyrainin,SoftwareType,DateUTC
2013-01-18 00:12:00,28.3,20.0,30.46,NW,307,6.0,6.0,70,0.00,,,0.00,weatherlink.com 1.10,2013-01-18 05:12:00,
2013-01-18 00:27:00,27.9,19.0,30.47,NW,314,3.0,9.0,69,0.00,,,0.00,weatherlink.com 1.10,2013-01-18 05:27:00,
2013-01-18 00:42:00,27.5,19.0,30.48,North,359,2.0,8.0,71,0.00,,,0.00,weatherlink.com 1.10,2013-01-18 05:42:00,
2013-01-18 00:57:00,26.9,19.0,30.48,SW,229,0.0,4.0,73,0.00,,,0.00,weatherlink.com 1.10,2013-01-18 05:57:00,
2013-01-18 01:12:00,26.4,19.0,30.49,WNW,285,0.0,5.0,74,0.00,,,0.00,weatherlink.com 1.10,2013-01-18 06:12:00,
2013-01-18 01:27:00,26.2,19.0,30.50,North,360,4.0,7.0,75,0.00,,,0.00,weatherlink.com 1.10,2013-01-18 06:27:00,
2013-01-18 01:57:00,25.7,19.0,30.51,NW,319,3.0,6.0,76,0.00,,,0.00,weatherlink.com 1.10,2013-01-18 06:57:00,
2013-01-18 02:12:00,25.4,19.0,30.51,NNW,336,0.0,3.0,76,0.00,,,0.00,weatherlink.com 1.10,2013-01-18 07:12:00,
2013-01-18 02:27:00,24.5,18.0,30.51,NNW,342,0.0,0.0,77,0.00,,,0.00,weatherlink.com 1.10,2013-01-18 07:27:00,
2013-01-18 02:42:00,23.6,19.0,30.52,NNW,342,0.0,0.0,81,0.00,,,0.00,weatherlink.com 1.10,2013-01-18 07:42:00,
2013-01-18 02:57:00,22.9,18.0,30.52,SSW,208,0.0,0.0,82,0.00,,,0.00,weatherlink.com 1.10,2013-01-18 07:57:00,
2013-01-18 03:12:00,22.4,18.0,30.52,SW,214,0.0,0.0,84,0.00,,,0.00,weatherlink.com 1.10,2013-01-18 08:12:00,
2013-01-18 03:27:00,22.1,18.0,30.52,West,271,0.0,0.0,85,0.00,,,0.00,weatherlink.com 1.10,2013-01-18 08:27:00,
2013-01-18 03:42:00,21.6,18.0,30.53,West,271,0.0,1.0,85,0.00,,,0.00,weatherlink.com 1.10,2013-01-18 08:42:00,
2013-01-18 03:58:00,21.2,18.0,30.54,West,271,0.0,0.0,86,0.00,,,0.00,weatherlink.com 1.10,2013-01-18 08:58:00,
2013-01-18 04:13:00,21.0,18.0,30.54,West,271,0.0,0.0,86,0.00,,,0.00,weatherlink.com 1.10,2013-01-18 09:13:00,
2013-01-18 04:28:00,20.5,17.0,30.54,West,271,0.0,0.0,87,0.00,,,0.00,weatherlink.com 1.10,2013-01-18 09:28:00,
2013-01-18 04:43:00,20.2,17.0,30.54,West,271,0.0,0.0,88,0.00,,,0.00,weatherlink.com 1.10,2013-01-18 09:43:00,
2013-01-18 04:58:00,20.3,18.0,30.54,West,271,0.0,0.0,89,0.00,,,0.00,weatherlink.com 1.10,2013-01-18 09:58:00,
2013-01-18 05:13:00,20.6,18.0,30.54,NW,314,0.0,0.0,89,0.00,,,0.00,weatherlink.com 1.10,2013-01-18 10:13:00,
2013-01-18 05:28:00,20.7,18.0,30.55,NW,314,0.0,0.0,88,0.00,,,0.00,weatherlink.com 1.10,2013-01-18 10:28:00,
2013-01-18 05:43:00,20.3,17.0,30.55,NW,314,0.0,0.0,87,0.00,,,0.00,weatherlink.com 1.10,2013-01-18 10:43:00,
2013-01-18 05:58:00,19.5,17.0,30.55,NW,314,0.0,0.0,88,0.00,,,0.00,weatherlink.com 1.10,2013-01-18 10:58:00,
2013-01-18 06:13:00,19.3,17.0,30.55,NW,314,0.0,0.0,90,0.00,,,0.00,weatherlink.com 1.10,2013-01-18 11:13:00,
2013-01-18 06:28:00,18.9,16.0,30.54,NW,315,0.0,0.0,89,0.00,,,0.00,weatherlink.com 1.10,2013-01-18 11:28:00,
2013-01-18 06:43:00,19.3,17.0,30.55,NNW,335,0.0,0.0,91,0.00,,,0.00,weatherlink.com 1.10,2013-01-18 11:43:00,
2013-01-18 06:58:00,19.6,17.0,30.56,NNW,335,0.0,0.0,90,0.00,,,0.00,weatherlink.com 1.10,2013-01-18 11:58:00,
2013-01-18 07:13:00,19.6,17.0,30.56,NNW,335,0.0,0.0,89,0.00,,,0.00,weatherlink.com 1.10,2013-01-18 12:13:00,
2013-01-18 07:28:00,19.5,17.0,30.57,NNW,328,0.0,0.0,89,0.00,,,0.00,weatherlink.com 1.10,2013-01-18 12:28:00,
2013-01-18 07:43:00,19.7,17.0,30.57,NNW,328,0.0,0.0,89,0.00,,,0.00,weatherlink.com 1.10,2013-01-18 12:43:00,
2013-01-18 07:58:00,19.6,17.0,30.57,NNW,327,0.0,0.0,90,0.00,,,0.00,weatherlink.com 1.10,2013-01-18 12:58:00,
2013-01-18 08:13:00,20.0,17.0,30.57,NNW,328,0.0,0.0,88,0.00,,,0.00,weatherlink.com 1.10,2013-01-18 13:13:00,
2013-01-18 08:28:00,20.9,18.0,30.57,NNW,328,0.0,0.0,88,0.00,,,0.00,weatherlink.com 1.10,2013-01-18 13:28:00,
2013-01-18 08:43:00,22.1,19.0,30.57,NNW,328,0.0,0.0,88,0.00,,,0.00,weatherlink.com 1.10,2013-01-18 13:43:00,
2013-01-18 08:58:00,24.1,19.0,30.57,West,259,0.0,0.0,80,0.00,,,0.00,weatherlink.com 1.10,2013-01-18 13:58:00,
2013-01-18 09:13:00,25.0,20.0,30.58,SW,233,0.0,2.0,81,0.00,,,0.00,weatherlink.com 1.10,2013-01-18 14:13:00,
2013-01-18 09:28:00,26.2,21.0,30.58,WSW,239,0.0,3.0,80,0.00,,,0.00,weatherlink.com 1.10,2013-01-18 14:28:00,
2013-01-18 09:43:00,27.1,21.0,30.59,SW,228,3.0,4.0,78,0.00,,,0.00,weatherlink.com 1.10,2013-01-18 14:43:00,
2013-01-18 09:58:00,28.4,21.0,30.59,SW,226,0.0,3.0,74,0.00,,,0.00,weatherlink.com 1.10,2013-01-18 14:58:00,
2013-01-18 10:13:00,29.3,20.0,30.59,ESE,121,0.0,3.0,69,0.00,,,0.00,weatherlink.com 1.10,2013-01-18 15:13:00,
2013-01-18 10:28:00,30.0,19.0,30.59,WSW,240,1.0,3.0,64,0.00,,,0.00,weatherlink.com 1.10,2013-01-18 15:28:00,
2013-01-18 10:43:00,30.8,19.0,30.59,SSE,159,3.0,3.0,62,0.00,,,0.00,weatherlink.com 1.10,2013-01-18 15:43:00,
2013-01-18 10:58:00,31.1,19.0,30.59,South,170,3.0,7.0,60,0.00,,,0.00,weatherlink.com 1.10,2013-01-18 15:58:00,
2013-01-18 11:13:00,31.5,18.0,30.59,SW,228,7.0,7.0,58,0.00,,,0.00,weatherlink.com 1.10,2013-01-18 16:13:00,
2013-01-18 11:28:00,31.8,18.0,30.59,South,187,1.0,6.0,57,0.00,,,0.00,weatherlink.com 1.10,2013-01-18 16:28:00,
2013-01-18 11:43:00,32.5,19.0,30.58,WSW,240,1.0,7.0,58,0.00,,,0.00,weatherlink.com 1.10,2013-01-18 16:43:00,
2013-01-18 11:58:00,33.2,19.0,30.57,South,175,2.0,6.0,57,0.00,,,0.00,weatherlink.com 1.10,2013-01-18 16:58:00,
2013-01-18 12:13:00,33.8,20.0,30.56,SE,146,1.0,5.0,57,0.00,,,0.00,weatherlink.com 1.10,2013-01-18 17:13:00,
2013-01-18 12:28:00,34.1,20.0,30.55,South,190,1.0,7.0,56,0.00,,,0.00,weatherlink.com 1.10,2013-01-18 17:28:00,
2013-01-18 12:43:00,34.3,20.0,30.53,South,169,2.0,8.0,55,0.00,,,0.00,weatherlink.com 1.10,2013-01-18 17:43:00,
2013-01-18 12:59:00,34.9,20.0,30.52,SSW,207,2.0,7.0,55,0.00,,,0.00,weatherlink.com 1.10,2013-01-18 17:59:00,
2013-01-18 13:14:00,35.5,20.0,30.50,East,101,5.0,8.0,54,0.00,,,0.00,weatherlink.com 1.10,2013-01-18 18:14:00,
2013-01-18 13:29:00,36.0,20.0,30.50,SW,222,2.0,9.0,53,0.00,,,0.00,weatherlink.com 1.10,2013-01-18 18:29:00,
2013-01-18 13:44:00,36.8,20.0,30.49,SSW,212,2.0,8.0,52,0.00,,,0.00,weatherlink.com 1.10,2013-01-18 18:44:00,
2013-01-18 13:59:00,37.4,20.0,30.49,South,191,4.0,10.0,50,0.00,,,0.00,weatherlink.com 1.10,2013-01-18 18:59:00,
2013-01-18 14:14:00,37.8,21.0,30.48,West,267,5.0,12.0,50,0.00,,,0.00,weatherlink.com 1.10,2013-01-18 19:14:00,
2013-01-18 14:29:00,38.3,20.0,30.48,SW,231,3.0,9.0,49,0.00,,,0.00,weatherlink.com 1.10,2013-01-18 19:29:00,
2013-01-18 14:44:00,38.7,21.0,30.48,SW,226,5.0,8.0,50,0.00,,,0.00,weatherlink.com 1.10,2013-01-18 19:44:00,
2013-01-18 14:59:00,38.9,21.0,30.47,South,177,2.0,8.0,49,0.00,,,0.00,weatherlink.com 1.10,2013-01-18 19:59:00,
2013-01-18 15:14:00,39.7,21.0,30.47,SSW,211,4.0,11.0,48,0.00,,,0.00,weatherlink.com 1.10,2013-01-18 20:14:00,
2013-01-18 15:29:00,40.1,22.0,30.46,SSW,203,3.0,7.0,49,0.00,,,0.00,weatherlink.com 1.10,2013-01-18 20:29:00,
2013-01-18 15:44:00,40.2,21.0,30.45,SSW,206,2.0,12.0,47,0.00,,,0.00,weatherlink.com 1.10,2013-01-18 20:44:00,
2013-01-18 15:59:00,40.8,22.0,30.44,SSE,166,7.0,12.0,47,0.00,,,0.00,weatherlink.com 1.10,2013-01-18 20:59:00,
2013-01-18 16:14:00,41.0,21.0,30.44,SSW,193,5.0,10.0,46,0.00,,,0.00,weatherlink.com 1.10,2013-01-18 21:14:00,
2013-01-18 16:29:00,40.9,22.0,30.43,SW,236,10.0,13.0,47,0.00,,,0.00,weatherlink.com 1.10,2013-01-18 21:29:00,
2013-01-18 16:44:00,41.4,22.0,30.43,SSE,165,3.0,11.0,47,0.00,,,0.00,weatherlink.com 1.10,2013-01-18 21:44:00,
2013-01-18 16:59:00,41.6,23.0,30.42,SSW,205,3.0,8.0,47,0.00,,,0.00,weatherlink.com 1.10,2013-01-18 21:59:00,
2013-01-18 17:14:00,41.4,23.0,30.42,South,172,6.0,8.0,48,0.00,,,0.00,weatherlink.com 1.10,2013-01-18 22:14:00,
2013-01-18 17:29:00,40.2,23.0,30.41,SSE,163,2.0,9.0,50,0.00,,,0.00,weatherlink.com 1.10,2013-01-18 22:29:00,
2013-01-18 17:44:00,38.9,23.0,30.41,SW,236,4.0,12.0,53,0.00,,,0.00,weatherlink.com 1.10,2013-01-18 22:44:00,
2013-01-18 17:59:00,38.2,23.0,30.41,SSE,167,4.0,7.0,55,0.00,,,0.00,weatherlink.com 1.10,2013-01-18 22:59:00,
2013-01-18 18:14:00,37.8,24.0,30.41,SSE,160,2.0,8.0,57,0.00,,,0.00,weatherlink.com 1.10,2013-01-18 23:14:00,
2013-01-18 18:29:00,37.3,24.0,30.41,SSE,153,6.0,7.0,58,0.00,,,0.00,weatherlink.com 1.10,2013-01-18 23:29:00,
2013-01-18 18:44:00,37.0,24.0,30.41,SSE,167,2.0,8.0,60,0.00,,,0.00,weatherlink.com 1.10,2013-01-18 23:44:00,
2013-01-18 18:59:00,36.9,24.0,30.40,WSW,249,3.0,8.0,61,0.00,,,0.00,weatherlink.com 1.10,2013-01-18 23:59:00,
2013-01-18 19:14:00,36.6,25.0,30.40,SSW,212,2.0,7.0,63,0.00,,,0.00,weatherlink.com 1.10,2013-01-19 00:14:00,
2013-01-18 19:29:00,36.2,25.0,30.39,SW,219,3.0,7.0,64,0.00,,,0.00,weatherlink.com 1.10,2013-01-19 00:29:00,
2013-01-18 19:44:00,36.1,25.0,30.39,SW,233,4.0,5.0,65,0.00,,,0.00,weatherlink.com 1.10,2013-01-19 00:44:00,
2013-01-18 19:59:00,36.1,26.0,30.39,South,174,2.0,7.0,66,0.00,,,0.00,weatherlink.com 1.10,2013-01-19 00:59:00,
2013-01-18 20:14:00,35.8,26.0,30.38,SSW,210,1.0,5.0,67,0.00,,,0.00,weatherlink.com 1.10,2013-01-19 01:14:00,
2013-01-18 20:29:00,35.5,26.0,30.38,SSW,200,1.0,3.0,68,0.00,,,0.00,weatherlink.com 1.10,2013-01-19 01:29:00,
2013-01-18 20:44:00,35.4,26.0,30.38,SSW,211,1.0,5.0,68,0.00,,,0.00,weatherlink.com 1.10,2013-01-19 01:44:00,
2013-01-18 20:59:00,35.2,26.0,30.37,SW,233,2.0,5.0,69,0.00,,,0.00,weatherlink.com 1.10,2013-01-19 01:59:00,
2013-01-18 21:14:00,35.1,26.0,30.36,South,184,2.0,4.0,69,0.00,,,0.00,weatherlink.com 1.10,2013-01-19 02:14:00,
2013-01-18 21:30:00,35.1,26.0,30.36,SW,222,1.0,4.0,70,0.00,,,0.00,weatherlink.com 1.10,2013-01-19 02:30:00,
2013-01-18 21:45:00,35.0,26.0,30.35,SW,233,3.0,4.0,70,0.00,,,0.00,weatherlink.com 1.10,2013-01-19 02:45:00,
2013-01-18 22:00:00,34.9,26.0,30.34,SSW,211,1.0,4.0,70,0.00,,,0.00,weatherlink.com 1.10,2013-01-19 03:00:00,
2013-01-18 22:15:00,34.9,26.0,30.34,SW,225,1.0,3.0,70,0.00,,,0.00,weatherlink.com 1.10,2013-01-19 03:15:00,
2013-01-18 22:30:00,34.9,26.0,30.33,SSW,208,3.0,4.0,70,0.00,,,0.00,weatherlink.com 1.10,2013-01-19 03:30:00,
2013-01-18 22:45:00,35.0,26.0,30.32,WSW,238,2.0,4.0,70,0.00,,,0.00,weatherlink.com 1.10,2013-01-19 03:45:00,
2013-01-18 23:00:00,35.4,26.0,30.32,WSW,250,3.0,6.0,69,0.00,,,0.00,weatherlink.com 1.10,2013-01-19 04:00:00,
2013-01-18 23:15:00,35.8,26.0,30.31,SW,236,6.0,6.0,68,0.00,,,0.00,weatherlink.com 1.10,2013-01-19 04:15:00,
2013-01-18 23:30:00,36.6,26.0,30.31,SSW,211,2.0,9.0,66,0.00,,,0.00,weatherlink.com 1.10,2013-01-19 04:30:00,
2013-01-18 23:45:00,37.2,26.0,30.31,SW,217,1.0,11.0,64,0.00,,,0.00,weatherlink.com 1.10,2013-01-19 04:45:00,